Morrisville, NC

9:49 AM EST on December 03, 2016 (GMT -0500)
Raleigh-Durham International

Weather History for KRDU - May, 2012

Change the Weather History Date:

Friday, May 18, 2012

  Actual Average Record
Temperature  
Mean Temperature 68 °F 68 °F  
Max Temperature 77 °F 80 °F 95 °F (1906)
Min Temperature 59 °F 57 °F 35 °F (1973)
Degree Days  
Heating Degree Days 0 1  
Month to date heating degree days 10 42  
Since 1 July heating degree days 2528 3231  
Cooling Degree Days 3 5  
Month to date cooling degree days 108 66  
Year to date cooling degree days 197 127  
Growing Degree Days 17 (Base 50)    
Moisture  
Dew Point 49 °F    
Average Humidity 59    
Maximum Humidity 84    
Minimum Humidity 33    
Precipitation  
Precipitation 0.00 in 0.11 in 3.24 in (1894)
Month to date precipitation 2.90 1.77  
Year to date precipitation 14.79 15.53  
Sea Level Pressure  
Sea Level Pressure 30.07 in    
Wind  
Wind Speed 9 mph (NE)    
Max Wind Speed 17 mph    
Max Gust Speed 25 mph    
Visibility 10 miles    
Events      
T = Trace of Precipitation, MM = Missing Value Source: NWS Daily Summary

Daily Weather History Graph

Daily Weather History Graph

Search for Another Location

Airport or City:

Trip Planner

Search our weather history database for the weather conditions in past years. The results will help you decide how hot, cold, wet, or windy it might be!

Date:

Astronomy

May. 18, 2012 Rise Set
Actual Time 6:07 AM EDT 8:16 PM EDT
Civil Twilight 5:38 AM EDT 8:45 PM EDT
Nautical Twilight 5:03 AM EDT 9:20 PM EDT
Astronomical Twilight 4:25 AM EDT 9:58 PM EDT
Moon 4:31 AM EDT (5/18) 6:25 PM EDT (5/18)
Length of Visible Light 15h 07m
Length of Day
14h 09m
Waning Crescent, 5% of the Moon is Illuminated
May 18
Waning Crescent
May 20
New
May 28
First Quarter
Jun 4
Full
Jun 11
Last Quarter

Hourly Weather History & Observations

Time (EDT) Temp. Dew Point Humidity Pressure Visibility Wind Dir Wind Speed Gust Speed Precip Events Conditions
12:51 AM 64.9 °F 59.0 °F 81% 30.04 in 10.0 mi NE 16.1 mph 23.0 mph N/A   Mostly Cloudy
1:51 AM 64.0 °F 57.0 °F 78% 30.05 in 10.0 mi NE 10.4 mph 19.6 mph N/A   Mostly Cloudy
2:51 AM 62.1 °F 52.0 °F 70% 30.04 in 10.0 mi ENE 8.1 mph - N/A   Mostly Cloudy
3:51 AM 62.1 °F 52.0 °F 70% 30.05 in 10.0 mi NE 4.6 mph - N/A   Mostly Cloudy
4:51 AM 60.1 °F 53.1 °F 78% 30.06 in 10.0 mi NE 5.8 mph - N/A   Mostly Cloudy
5:51 AM 59.0 °F 53.1 °F 81% 30.06 in 10.0 mi NE 6.9 mph - N/A   Mostly Cloudy
6:51 AM 60.1 °F 52.0 °F 75% 30.08 in 10.0 mi Variable 4.6 mph - N/A   Mostly Cloudy
7:51 AM 62.1 °F 50.0 °F 65% 30.09 in 10.0 mi NE 9.2 mph - N/A   Mostly Cloudy
8:51 AM 64.9 °F 50.0 °F 58% 30.10 in 10.0 mi NE 13.8 mph 19.6 mph N/A   Mostly Cloudy
9:51 AM 68.0 °F 46.9 °F 47% 30.10 in 10.0 mi NE 10.4 mph 21.9 mph N/A   Mostly Cloudy
10:51 AM 71.1 °F 43.0 °F 36% 30.09 in 10.0 mi ENE 11.5 mph 19.6 mph N/A   Mostly Cloudy
11:51 AM 72.0 °F 46.9 °F 41% 30.10 in 10.0 mi NE 8.1 mph 20.7 mph N/A   Mostly Cloudy
12:51 PM 73.0 °F 48.9 °F 42% 30.09 in 10.0 mi NE 8.1 mph - N/A   Mostly Cloudy
1:51 PM 73.9 °F 44.1 °F 34% 30.08 in 10.0 mi NNE 11.5 mph 20.7 mph N/A   Mostly Cloudy
2:51 PM 73.9 °F 44.1 °F 34% 30.07 in 10.0 mi NNE 15.0 mph 21.9 mph N/A   Mostly Cloudy
3:51 PM 73.9 °F 43.0 °F 33% 30.06 in 10.0 mi NNE 10.4 mph 17.3 mph N/A   Mostly Cloudy
4:51 PM 75.0 °F 45.0 °F 34% 30.06 in 10.0 mi NE 11.5 mph 17.3 mph N/A   Mostly Cloudy
5:51 PM 73.9 °F 45.0 °F 35% 30.06 in 10.0 mi NE 13.8 mph - N/A   Mostly Cloudy
6:51 PM 72.0 °F 46.0 °F 40% 30.06 in 10.0 mi NE 8.1 mph - N/A   Mostly Cloudy
7:51 PM 69.1 °F 46.9 °F 45% 30.07 in 10.0 mi ENE 5.8 mph - N/A   Mostly Cloudy
8:51 PM 66.0 °F 46.9 °F 50% 30.07 in 10.0 mi ENE 6.9 mph - N/A   Mostly Cloudy
9:51 PM 64.9 °F 46.9 °F 52% 30.09 in 10.0 mi East 6.9 mph - N/A   Overcast
10:51 PM 63.0 °F 46.9 °F 56% 30.11 in 10.0 mi ENE 5.8 mph - N/A   Mostly Cloudy
11:51 PM 63.0 °F 45.0 °F 52% 30.10 in 10.0 mi East 8.1 mph - N/A   Mostly Cloudy